,,,PA_Meas_PMT16A,,PR_Meas_QMR101_102,,RH_Meas_QMH101,,SR_Meas_QMS101,,TA_Meas_QMH101,,GenWind,,GenWind,
date,time,status,PA,status,PR,status,RH,status,SR,status,TA,status,DirAvg,status,SpdAvg,
2010-07-17, 00:00:04,VALID,1002.71,VALID,0,VALID,88.9756,VALID,0,VALID,26.2739,VALID,28,VALID,0.368359,
2010-07-17, 00:01:04,VALID,1002.74,VALID,0,VALID,88.5866,VALID,0,VALID,26.2913,VALID,28,VALID,0.341016,
2010-07-17, 00:02:04,VALID,1002.74,VALID,0,VALID,88.3882,VALID,0,VALID,26.2913,VALID,26,VALID,0.345703,
2010-07-17, 00:03:04,VALID,1002.69,VALID,0,VALID,88.3348,VALID,0,VALID,26.3108,VALID,11,VALID,0.438672,
2010-07-17, 00:04:04,VALID,1002.68,VALID,0,VALID,88.2127,VALID,0.100563,VALID,26.3518,VALID,29,VALID,0.765625,
2010-07-17, 00:05:04,VALID,1002.68,VALID,0,VALID,87.9915,VALID,0,VALID,26.3907,VALID,27,VALID,0.420312,
2010-07-17, 00:06:04,VALID,1002.65,VALID,0,VALID,87.8923,VALID,0,VALID,26.3498,VALID,27,VALID,0.357812,
2010-07-17, 00:07:04,VALID,1002.68,VALID,0,VALID,87.816,VALID,0.100563,VALID,26.3518,VALID,36,VALID,0.451172,
2010-07-17, 00:08:04,VALID,1002.66,VALID,0,VALID,87.961,VALID,0.100563,VALID,26.2913,VALID,37,VALID,0.0183594,
2010-07-17, 00:09:04,VALID,1002.67,VALID,0,VALID,88.0907,VALID,0,VALID,26.2329,VALID,37,VALID,0,
2010-07-17, 00:10:04,VALID,1002.7,VALID,0,VALID,88.3348,VALID,0.100563,VALID,26.194,VALID,37,VALID,0,
2010-07-17, 00:11:04,VALID,1002.71,VALID,0,VALID,88.3424,VALID,0,VALID,26.1745,VALID,37,VALID,0,
2010-07-17, 00:12:04,VALID,1002.7,VALID,0,VALID,88.6705,VALID,0.100563,VALID,26.155,VALID,37,VALID,0.0488281,
2010-07-17, 00:13:04,VALID,1002.74,VALID,0,VALID,89.029,VALID,0.100563,VALID,26.2134,VALID,63,VALID,0.805469,
2010-07-17, 00:14:04,VALID,1002.69,VALID,0,VALID,88.6857,VALID,0,VALID,26.2329,VALID,48,VALID,0.140234,
2010-07-17, 00:15:04,VALID,1002.69,VALID,0,VALID,88.4569,VALID,0,VALID,26.2719,VALID,53,VALID,0.427734,
2010-07-17, 00:16:04,VALID,1002.66,VALID,0,VALID,88.1899,VALID,0,VALID,26.2913,VALID,62,VALID,0.04375,
2010-07-17, 00:17:04,VALID,1002.63,VALID,0,VALID,87.9991,VALID,0,VALID,26.2913,VALID,62,VALID,0.0601562,
2010-07-17, 00:18:04,VALID,1002.62,VALID,0,VALID,88.0754,VALID,0,VALID,26.3518,VALID,80,VALID,0.345703,
2010-07-17, 00:19:04,VALID,1002.63,VALID,0,VALID,87.7321,VALID,0,VALID,26.3693,VALID,69,VALID,0.409766,
2010-07-17, 00:20:04,VALID,1002.62,VALID,0,VALID,87.6253,VALID,0,VALID,26.2894,VALID,49,VALID,0.16875,
2010-07-17, 00:21:04,VALID,1002.61,VALID,0,VALID,87.8694,VALID,0,VALID,26.2739,VALID,49,VALID,0,
2010-07-17, 00:22:04,VALID,1002.6,VALID,0,VALID,88.1059,VALID,0,VALID,26.2329,VALID,49,VALID,0,
2010-07-17, 00:23:04,VALID,1002.59,VALID,0,VALID,88.2433,VALID,0,VALID,26.2134,VALID,49,VALID,0,
2010-07-17, 00:24:04,VALID,1002.62,VALID,0,VALID,88.4035,VALID,0,VALID,26.2134,VALID,70,VALID,0.275781,
2010-07-17, 00:25:04,VALID,1002.63,VALID,0,VALID,88.4035,VALID,0,VALID,26.194,VALID,70,VALID,0.025,
2010-07-17, 00:26:04,VALID,1002.67,VALID,0,VALID,88.3806,VALID,0,VALID,26.1959,VALID,70,VALID,0,
2010-07-17, 00:27:04,VALID,1002.67,VALID,0,VALID,88.4035,VALID,0,VALID,26.155,VALID,70,VALID,0.000390625,
2010-07-17, 00:28:04,VALID,1002.66,VALID,0,VALID,88.5866,VALID,0,VALID,26.1745,VALID,60,VALID,0.522656,
2010-07-17, 00:29:04,VALID,1002.68,VALID,0,VALID,88.5484,VALID,0,VALID,26.1355,VALID,54,VALID,0.00429688,
2010-07-17, 00:30:04,VALID,1002.68,VALID,0,VALID,88.7315,VALID,0,VALID,26.116,VALID,54,VALID,0.0253906,
2010-07-17, 00:31:04,VALID,1002.65,VALID,0,VALID,88.9909,VALID,0,VALID,26.159,VALID,73,VALID,0.359766,
2010-07-17, 00:32:04,VALID,1002.64,VALID,0,VALID,88.6018,VALID,0,VALID,26.0985,VALID,32,VALID,0.646484,
2010-07-17, 00:33:04,VALID,1002.62,VALID,0,VALID,88.8917,VALID,0,VALID,26.0206,VALID,32,VALID,0.209766,
2010-07-17, 00:34:04,VALID,1002.62,VALID,0,VALID,89.5325,VALID,0,VALID,25.9836,VALID,32,VALID,0.115625,
2010-07-17, 00:35:04,VALID,1002.6,VALID,0,VALID,90.5167,VALID,0,VALID,25.9622,VALID,32,VALID,0.207813,
2010-07-17, 00:36:04,VALID,1002.58,VALID,0,VALID,90.776,VALID,0,VALID,26.0031,VALID,32,VALID,0.129688,
2010-07-17, 00:37:04,VALID,1002.55,VALID,0,VALID,90.7455,VALID,0,VALID,25.9622,VALID,32,VALID,0.416797,
2010-07-17, 00:38:04,VALID,1002.52,VALID,0,VALID,90.6616,VALID,0,VALID,25.9427,VALID,356,VALID,0.541016,
2010-07-17, 00:39:04,VALID,1002.51,VALID,0,VALID,90.8829,VALID,0,VALID,25.9038,VALID,356,VALID,0.223828,
2010-07-17, 00:40:04,VALID,1002.5,VALID,0,VALID,91.188,VALID,0,VALID,25.8453,VALID,356,VALID,0.378516,
2010-07-17, 00:41:04,VALID,1002.49,VALID,0,VALID,93.3088,VALID,0,VALID,25.8064,VALID,356,VALID,0.439844,
2010-07-17, 00:42:04,VALID,1002.51,VALID,0,VALID,99.3585,VALID,0,VALID,25.748,VALID,11,VALID,0.280469,
2010-07-17, 00:43:04,VALID,1002.47,VALID,0,VALID,102.753,VALID,0,VALID,25.746,VALID,73,VALID,0.778516,
2010-07-17, 00:44:04,VALID,1002.46,VALID,0,VALID,103.379,VALID,0,VALID,25.8064,VALID,79,VALID,0.0835937,
2010-07-17, 00:45:04,VALID,1002.43,VALID,0,VALID,99.7476,VALID,0,VALID,25.8083,VALID,75,VALID,0.489844,
2010-07-17, 00:46:04,VALID,1002.46,VALID,0,VALID,101.296,VALID,0,VALID,25.7694,VALID,76,VALID,0.283984,
2010-07-17, 00:47:04,VALID,1002.46,VALID,0,VALID,102.059,VALID,0,VALID,25.7285,VALID,75,VALID,0.4125,
2010-07-17, 00:48:04,VALID,1002.44,VALID,0,VALID,102.776,VALID,0,VALID,25.67,VALID,76,VALID,0,
2010-07-17, 00:49:04,VALID,1002.41,VALID,0,VALID,103.806,VALID,0,VALID,25.67,VALID,75,VALID,0,
2010-07-17, 00:50:04,VALID,1002.4,VALID,0,VALID,103.364,VALID,0,VALID,25.6525,VALID,76,VALID,0,
2010-07-17, 00:51:04,VALID,1002.38,VALID,0,VALID,103.76,VALID,0,VALID,25.5921,VALID,75,VALID,0,
2010-07-17, 00:52:04,VALID,1002.33,VALID,0,VALID,104,VALID,0,VALID,25.6136,VALID,76,VALID,0.222656,
2010-07-17, 00:53:04,VALID,1002.33,VALID,0,VALID,104,VALID,0,VALID,25.5727,VALID,76,VALID,0.146484,
2010-07-17, 00:54:04,VALID,1002.3,VALID,0,VALID,104,VALID,0,VALID,25.5727,VALID,76,VALID,0.297656,
2010-07-17, 00:55:04,VALID,1002.32,VALID,0,VALID,104,VALID,0,VALID,25.633,VALID,76,VALID,0.332422,
2010-07-17, 00:56:04,VALID,1002.33,VALID,0,VALID,104,VALID,0,VALID,25.6311,VALID,76,VALID,0.272656,
2010-07-17, 00:57:04,VALID,1002.32,VALID,0,VALID,104,VALID,0,VALID,25.672,VALID,81,VALID,0.374609,
2010-07-17, 00:58:04,VALID,1002.33,VALID,0,VALID,104,VALID,0,VALID,25.6506,VALID,81,VALID,0.362891,
2010-07-17, 00:59:04,VALID,1002.36,VALID,0,VALID,104,VALID,0,VALID,25.709,VALID,101,VALID,0.703516,
2010-07-17, 01:00:04,VALID,1002.35,VALID,0,VALID,104,VALID,0,VALID,25.7285,VALID,62,VALID,0.415234,
2010-07-17, 01:01:04,VALID,1002.37,VALID,0,VALID,104,VALID,0,VALID,25.7655,VALID,71,VALID,0.414063,
2010-07-17, 01:02:04,VALID,1002.39,VALID,0,VALID,103.966,VALID,0,VALID,25.8064,VALID,61,VALID,0.151562,
2010-07-17, 01:03:04,VALID,1002.39,VALID,0,VALID,103.326,VALID,0,VALID,25.8064,VALID,357,VALID,0.729297,
2010-07-17, 01:04:04,VALID,1002.4,VALID,0,VALID,102.425,VALID,0,VALID,25.8259,VALID,17,VALID,0.265234,
2010-07-17, 01:05:04,VALID,1002.36,VALID,0,VALID,101.846,VALID,0,VALID,25.8044,VALID,62,VALID,0.386719,
2010-07-17, 01:06:04,VALID,1002.39,VALID,0,VALID,101.342,VALID,0,VALID,25.8453,VALID,37,VALID,0.4875,
2010-07-17, 01:07:04,VALID,1002.41,VALID,0,VALID,99.5416,VALID,0,VALID,25.8453,VALID,37,VALID,0.107422,
2010-07-17, 01:08:04,VALID,1002.41,VALID,0,VALID,98.3439,VALID,0,VALID,25.8239,VALID,37,VALID,0.0222656,
2010-07-17, 01:09:04,VALID,1002.42,VALID,0,VALID,98.8627,VALID,0,VALID,25.8239,VALID,37,VALID,0.00351562,
2010-07-17, 01:10:04,VALID,1002.44,VALID,0,VALID,100.907,VALID,0,VALID,25.8259,VALID,36,VALID,0.361328,
2010-07-17, 01:11:04,VALID,1002.45,VALID,0,VALID,100.846,VALID,0,VALID,25.8629,VALID,28,VALID,0.320703,
2010-07-17, 01:12:04,VALID,1002.45,VALID,0,VALID,99.5874,VALID,0,VALID,25.8823,VALID,28,VALID,0.380859,
2010-07-17, 01:13:04,VALID,1002.45,VALID,0,VALID,99.0915,VALID,0,VALID,25.9018,VALID,28,VALID,0.255078,
2010-07-17, 01:14:04,VALID,1002.41,VALID,0,VALID,96.3909,VALID,0,VALID,25.9213,VALID,29,VALID,0,
2010-07-17, 01:15:04,VALID,1002.4,VALID,0,VALID,94.8499,VALID,0,VALID,25.9408,VALID,28,VALID,0,
2010-07-17, 01:16:04,VALID,1002.43,VALID,0,VALID,94.2853,VALID,0,VALID,25.9622,VALID,28,VALID,0,
2010-07-17, 01:17:04,VALID,1002.42,VALID,0,VALID,93.6674,VALID,0,VALID,26.0012,VALID,28,VALID,0,
2010-07-17, 01:18:04,VALID,1002.4,VALID,0,VALID,93.0113,VALID,0,VALID,25.9797,VALID,28,VALID,0,
2010-07-17, 01:19:04,VALID,1002.4,VALID,0,VALID,91.8975,VALID,0,VALID,25.9797,VALID,29,VALID,0,
2010-07-17, 01:20:04,VALID,1002.39,VALID,0,VALID,92.1035,VALID,0,VALID,26.0012,VALID,29,VALID,0,
2010-07-17, 01:21:04,VALID,1002.42,VALID,0,VALID,91.6305,VALID,0,VALID,25.9992,VALID,28,VALID,0,
2010-07-17, 01:22:04,VALID,1002.42,VALID,0,VALID,91.333,VALID,0,VALID,25.9797,VALID,5,VALID,0,
2010-07-17, 01:23:04,VALID,1002.41,VALID,0,VALID,91.2796,VALID,0,VALID,25.9797,VALID,8,VALID,0.587109,
2010-07-17, 01:24:04,VALID,1002.43,VALID,0,VALID,91.928,VALID,0,VALID,26.0381,VALID,8,VALID,0.509766,
2010-07-17, 01:25:04,VALID,1002.47,VALID,0,VALID,90.654,VALID,0,VALID,26.0576,VALID,16,VALID,0.409375,
2010-07-17, 01:26:04,VALID,1002.47,VALID,0,VALID,90.1734,VALID,0,VALID,26.0576,VALID,16,VALID,0.45625,
2010-07-17, 01:27:04,VALID,1002.47,VALID,0,VALID,89.8987,VALID,0,VALID,26.0791,VALID,7,VALID,0.4375,
2010-07-17, 01:28:04,VALID,1002.46,VALID,0,VALID,89.9979,VALID,0,VALID,25.9992,VALID,7,VALID,0.169922,
2010-07-17, 01:29:04,VALID,1002.45,VALID,0,VALID,90.2878,VALID,0,VALID,25.9797,VALID,7,VALID,0.319531,
2010-07-17, 01:30:04,VALID,1002.44,VALID,0,VALID,90.9439,VALID,0,VALID,25.9797,VALID,7,VALID,0.220313,
2010-07-17, 01:31:04,VALID,1002.43,VALID,0,VALID,91.1422,VALID,0,VALID,26.0012,VALID,24,VALID,0.158203,
2010-07-17, 01:32:04,VALID,1002.4,VALID,0,VALID,91.4855,VALID,0,VALID,25.9797,VALID,11,VALID,0.488672,
2010-07-17, 01:33:04,VALID,1002.41,VALID,0,VALID,91.5618,VALID,0,VALID,25.9992,VALID,8,VALID,0.291016,
2010-07-17, 01:34:04,VALID,1002.38,VALID,0,VALID,91.0049,VALID,0,VALID,26.0187,VALID,8,VALID,0.0257812,
2010-07-17, 01:35:04,VALID,1002.37,VALID,0,VALID,90.9591,VALID,0,VALID,25.9992,VALID,8,VALID,0.132813,
2010-07-17, 01:36:04,VALID,1002.35,VALID,0,VALID,90.9286,VALID,0,VALID,26.0401,VALID,11,VALID,0.246875,
2010-07-17, 01:37:04,VALID,1002.33,VALID,0,VALID,90.7455,VALID,0,VALID,26.0187,VALID,11,VALID,0,
2010-07-17, 01:38:04,VALID,1002.3,VALID,0,VALID,90.9897,VALID,0,VALID,26.0401,VALID,12,VALID,0.660937,
2010-07-17, 01:39:04,VALID,1002.33,VALID,0,VALID,90.8218,VALID,0.100563,VALID,26.0381,VALID,9,VALID,0.901953,
2010-07-17, 01:40:04,VALID,1002.32,VALID,0,VALID,91.0888,VALID,0,VALID,26.0187,VALID,356,VALID,0.606641,
2010-07-17, 01:41:04,VALID,1002.3,VALID,0,VALID,91.1651,VALID,0,VALID,26.0381,VALID,10,VALID,0.629687,
2010-07-17, 01:42:04,VALID,1002.31,VALID,0,VALID,91.1117,VALID,0,VALID,26.0771,VALID,36,VALID,0.560938,
2010-07-17, 01:43:04,VALID,1002.31,VALID,0,VALID,90.5319,VALID,0,VALID,26.0576,VALID,36,VALID,0.389844,
2010-07-17, 01:44:04,VALID,1002.28,VALID,0,VALID,90.8066,VALID,0.100563,VALID,26.0576,VALID,47,VALID,0.398828,
2010-07-17, 01:45:04,VALID,1002.29,VALID,0,VALID,91.0354,VALID,0,VALID,26.116,VALID,33,VALID,0.774609,
2010-07-17, 01:46:04,VALID,1002.26,VALID,0,VALID,90.387,VALID,0,VALID,26.1979,VALID,60,VALID,0.379297,
2010-07-17, 01:47:04,VALID,1002.29,VALID,0,VALID,89.7996,VALID,0,VALID,26.2154,VALID,48,VALID,0.394531,
2010-07-17, 01:48:04,VALID,1002.29,VALID,0,VALID,89.3266,VALID,0,VALID,26.2544,VALID,48,VALID,0.406641,
2010-07-17, 01:49:04,VALID,1002.29,VALID,0,VALID,89.1053,VALID,0,VALID,26.2739,VALID,48,VALID,0.439063,
2010-07-17, 01:50:04,VALID,1002.26,VALID,0,VALID,88.7162,VALID,0,VALID,26.3128,VALID,61,VALID,0.396875,
2010-07-17, 01:51:04,VALID,1002.25,VALID,0,VALID,88.4798,VALID,0,VALID,26.3518,VALID,55,VALID,0.423047,
2010-07-17, 01:52:04,VALID,1002.28,VALID,0,VALID,88.1975,VALID,0,VALID,26.3538,VALID,347,VALID,0.590234,
2010-07-17, 01:53:04,VALID,1002.24,VALID,0,VALID,88.2204,VALID,0,VALID,26.3927,VALID,348,VALID,0.520312,
2010-07-17, 01:54:04,VALID,1002.25,VALID,0,VALID,88.1822,VALID,0,VALID,26.3323,VALID,17,VALID,0.643359,
2010-07-17, 01:55:04,VALID,1002.25,VALID,0,VALID,88.2051,VALID,0,VALID,26.3343,VALID,360,VALID,0.748438,
2010-07-17, 01:56:04,VALID,1002.27,VALID,0,VALID,88.3195,VALID,0,VALID,26.3148,VALID,11,VALID,0.922656,
2010-07-17, 01:57:04,VALID,1002.27,VALID,0,VALID,88.5408,VALID,0,VALID,26.2953,VALID,10,VALID,0.817578,
2010-07-17, 01:58:04,VALID,1002.23,VALID,0,VALID,88.6552,VALID,0,VALID,26.2759,VALID,356,VALID,0.966797,
2010-07-17, 01:59:04,VALID,1002.24,VALID,0,VALID,88.6323,VALID,0,VALID,26.2953,VALID,27,VALID,0.874219,
2010-07-17, 02:00:04,VALID,1002.23,VALID,0,VALID,88.3119,VALID,0,VALID,26.3128,VALID,19,VALID,1.43867,
2010-07-17, 02:01:04,VALID,1002.21,VALID,0,VALID,87.7703,VALID,0,VALID,26.4297,VALID,11,VALID,0.887109,
2010-07-17, 02:02:04,VALID,1002.19,VALID,0,VALID,87.5261,VALID,0,VALID,26.4277,VALID,354,VALID,0.647266,
2010-07-17, 02:03:04,VALID,1002.19,VALID,0,VALID,87.488,VALID,0,VALID,26.4492,VALID,345,VALID,1.03789,
2010-07-17, 02:04:04,VALID,1002.18,VALID,0,VALID,87.3812,VALID,0,VALID,26.4492,VALID,360,VALID,0.393359,
2010-07-17, 02:05:04,VALID,1002.16,VALID,0,VALID,87.4804,VALID,0,VALID,26.3907,VALID,354,VALID,0.665625,
2010-07-17, 02:06:04,VALID,1002.2,VALID,0,VALID,87.5872,VALID,0,VALID,26.3713,VALID,356,VALID,0.439453,
2010-07-17, 02:07:04,VALID,1002.19,VALID,0,VALID,87.7626,VALID,0,VALID,26.3323,VALID,320,VALID,1.02891,
2010-07-17, 02:08:04,VALID,1002.16,VALID,0,VALID,87.8084,VALID,0,VALID,26.3108,VALID,2,VALID,0.617578,
2010-07-17, 02:09:04,VALID,1002.2,VALID,0,VALID,87.9076,VALID,0,VALID,26.2933,VALID,343,VALID,0.764453,
2010-07-17, 02:10:04,VALID,1002.19,VALID,0,VALID,88.0678,VALID,0,VALID,26.2544,VALID,350,VALID,0.666797,
2010-07-17, 02:11:04,VALID,1002.19,VALID,0,VALID,88.3195,VALID,0,VALID,26.1745,VALID,354,VALID,0.915234,
2010-07-17, 02:12:04,VALID,1002.19,VALID,0,VALID,88.6323,VALID,0,VALID,26.157,VALID,356,VALID,0.840234,
2010-07-17, 02:13:04,VALID,1002.16,VALID,0,VALID,88.9527,VALID,0,VALID,26.118,VALID,340,VALID,0.703516,
2010-07-17, 02:14:04,VALID,1002.14,VALID,0,VALID,88.9909,VALID,0.100563,VALID,26.116,VALID,358,VALID,1.03867,
2010-07-17, 02:15:04,VALID,1002.16,VALID,0,VALID,88.8688,VALID,0,VALID,26.0771,VALID,355,VALID,0.635938,
2010-07-17, 02:16:04,VALID,1002.14,VALID,0,VALID,89.2732,VALID,0,VALID,26.0596,VALID,347,VALID,1.06875,
2010-07-17, 02:17:04,VALID,1002.15,VALID,0,VALID,89.6851,VALID,0,VALID,26.0401,VALID,339,VALID,0.7375,
2010-07-17, 02:18:04,VALID,1002.12,VALID,0,VALID,89.7767,VALID,0,VALID,26.0381,VALID,351,VALID,0.957812,
2010-07-17, 02:19:04,VALID,1002.12,VALID,0,VALID,89.4868,VALID,0,VALID,26.0576,VALID,356,VALID,0.629687,
2010-07-17, 02:20:04,VALID,1002.11,VALID,0,VALID,89.441,VALID,0,VALID,26.0401,VALID,18,VALID,0.597266,
2010-07-17, 02:21:04,VALID,1002.11,VALID,0,VALID,89.6088,VALID,0,VALID,26.0012,VALID,353,VALID,0.655078,
2010-07-17, 02:22:04,VALID,1002.12,VALID,0,VALID,89.8682,VALID,0,VALID,25.9817,VALID,352,VALID,0.567187,
2010-07-17, 02:23:04,VALID,1002.12,VALID,0,VALID,90.1963,VALID,0,VALID,25.9232,VALID,345,VALID,0.774609,
2010-07-17, 02:24:04,VALID,1002.11,VALID,0,VALID,91.394,VALID,0,VALID,25.9622,VALID,22,VALID,0.464453,
2010-07-17, 02:25:04,VALID,1002.14,VALID,0,VALID,90.9134,VALID,0,VALID,25.9622,VALID,22,VALID,0.500781,
2010-07-17, 02:26:04,VALID,1002.16,VALID,0,VALID,91.0278,VALID,0.100563,VALID,25.9213,VALID,22,VALID,0.267969,
2010-07-17, 02:27:04,VALID,1002.15,VALID,0,VALID,91.1804,VALID,0,VALID,25.9427,VALID,22,VALID,0,
2010-07-17, 02:28:04,VALID,1002.16,VALID,0,VALID,91.4626,VALID,0,VALID,25.9038,VALID,22,VALID,0.00234375,
2010-07-17, 02:29:04,VALID,1002.18,VALID,0,VALID,93.3775,VALID,0,VALID,25.8629,VALID,2,VALID,0.496484,
2010-07-17, 02:30:04,VALID,1002.17,VALID,0,VALID,92.9198,VALID,0,VALID,25.8823,VALID,353,VALID,0.224219,
2010-07-17, 02:31:04,VALID,1002.17,VALID,0,VALID,92.8969,VALID,0,VALID,25.8648,VALID,353,VALID,0.375391,
2010-07-17, 02:32:04,VALID,1002.2,VALID,0,VALID,94.1862,VALID,0.100563,VALID,25.8044,VALID,354,VALID,0.383203,
2010-07-17, 02:33:04,VALID,1002.22,VALID,0,VALID,95.361,VALID,0,VALID,25.7674,VALID,354,VALID,0.175391,
2010-07-17, 02:34:04,VALID,1002.23,VALID,0,VALID,96.4748,VALID,0,VALID,25.7285,VALID,354,VALID,0.222656,
2010-07-17, 02:35:04,VALID,1002.19,VALID,0,VALID,100.854,VALID,0,VALID,25.6506,VALID,354,VALID,0.389062,
2010-07-17, 02:36:04,VALID,1002.18,VALID,0,VALID,102.578,VALID,0,VALID,25.5707,VALID,3,VALID,0.6,
2010-07-17, 02:37:04,VALID,1002.15,VALID,0,VALID,103.722,VALID,0,VALID,25.5123,VALID,3,VALID,0.698828,
2010-07-17, 02:38:04,VALID,1002.11,VALID,0,VALID,104,VALID,0,VALID,25.4539,VALID,12,VALID,0.690625,
2010-07-17, 02:39:04,VALID,1002.1,VALID,0,VALID,104,VALID,0,VALID,25.4753,VALID,56,VALID,0.242969,
2010-07-17, 02:40:04,VALID,1002.07,VALID,0,VALID,104,VALID,0,VALID,25.4149,VALID,16,VALID,0.403125,
2010-07-17, 02:41:04,VALID,1002.07,VALID,0,VALID,104,VALID,0,VALID,25.4149,VALID,16,VALID,0.425391,
2010-07-17, 02:42:04,VALID,1002.08,VALID,0,VALID,104,VALID,0,VALID,25.3955,VALID,16,VALID,0.544531,
2010-07-17, 02:43:04,VALID,1002.05,VALID,0,VALID,104,VALID,0,VALID,25.4169,VALID,32,VALID,0.755078,
2010-07-17, 02:44:04,VALID,1002.03,VALID,0,VALID,104,VALID,0.100563,VALID,25.4344,VALID,20,VALID,0.751172,
2010-07-17, 02:45:04,VALID,1002.01,VALID,0,VALID,104,VALID,0,VALID,25.5337,VALID,10,VALID,0.679688,
2010-07-17, 02:46:04,VALID,1001.99,VALID,0,VALID,104,VALID,0,VALID,25.5318,VALID,4,VALID,0.554688,
2010-07-17, 02:47:04,VALID,1001.97,VALID,0,VALID,104,VALID,0,VALID,25.5707,VALID,3,VALID,0.737891,
2010-07-17, 02:48:04,VALID,1001.97,VALID,0,VALID,104,VALID,0,VALID,25.6097,VALID,7,VALID,0.896094,
2010-07-17, 02:49:04,VALID,1001.96,VALID,0,VALID,104,VALID,0,VALID,25.8259,VALID,12,VALID,0.804688,
2010-07-17, 02:50:04,VALID,1001.97,VALID,0,VALID,104,VALID,0,VALID,25.9213,VALID,352,VALID,0.533203,
2010-07-17, 02:51:04,VALID,1001.96,VALID,0,VALID,99.1602,VALID,0,VALID,25.9817,VALID,353,VALID,1.11406,
2010-07-17, 02:52:04,VALID,1001.98,VALID,0,VALID,93.9268,VALID,0,VALID,26.0576,VALID,340,VALID,0.889844,
2010-07-17, 02:53:04,VALID,1002.04,VALID,0,VALID,90.776,VALID,0,VALID,26.157,VALID,356,VALID,0.523047,
2010-07-17, 02:54:04,VALID,1002.06,VALID,0,VALID,89.7004,VALID,0,VALID,26.155,VALID,347,VALID,1.11445,
2010-07-17, 02:55:04,VALID,1002.05,VALID,0,VALID,89.0748,VALID,0,VALID,26.1725,VALID,340,VALID,0.4625,
2010-07-17, 02:56:04,VALID,1002.06,VALID,0,VALID,88.7544,VALID,0,VALID,26.155,VALID,349,VALID,0.728125,
2010-07-17, 02:57:04,VALID,1002.08,VALID,0,VALID,89.0214,VALID,0,VALID,26.1355,VALID,355,VALID,0.526563,
2010-07-17, 02:58:04,VALID,1002.03,VALID,0,VALID,89.113,VALID,0,VALID,26.1375,VALID,2,VALID,0.360938,
2010-07-17, 02:59:04,VALID,1002.03,VALID,0,VALID,89.0214,VALID,0,VALID,26.0791,VALID,2,VALID,0.318359,
2010-07-17, 03:00:04,VALID,1002.04,VALID,0,VALID,89.6927,VALID,0,VALID,26.0381,VALID,4,VALID,0.785156,
2010-07-17, 03:01:04,VALID,1002.04,VALID,0,VALID,89.7461,VALID,0,VALID,26.0187,VALID,357,VALID,0.659375,
2010-07-17, 03:02:04,VALID,1002.05,VALID,0,VALID,90.0818,VALID,0,VALID,26.0401,VALID,343,VALID,0.793359,
2010-07-17, 03:03:04,VALID,1002.06,VALID,0,VALID,90.3336,VALID,0,VALID,26.0381,VALID,354,VALID,1.39375,
2010-07-17, 03:04:04,VALID,1002.06,VALID,0,VALID,89.853,VALID,0,VALID,26.118,VALID,3,VALID,0.537891,
2010-07-17, 03:05:04,VALID,1002.05,VALID,0,VALID,89.1511,VALID,0,VALID,26.118,VALID,3,VALID,0.442969,
2010-07-17, 03:06:04,VALID,1002.02,VALID,0,VALID,89.4257,VALID,0,VALID,26.0771,VALID,354,VALID,0.673047,
2010-07-17, 03:07:04,VALID,1001.98,VALID,0,VALID,89.4639,VALID,0,VALID,26.0771,VALID,359,VALID,1.05352,
2010-07-17, 03:08:04,VALID,1001.98,VALID,0,VALID,89.4486,VALID,0.100563,VALID,26.0966,VALID,358,VALID,0.904297,
2010-07-17, 03:09:04,VALID,1001.94,VALID,0,VALID,89.0824,VALID,0,VALID,26.0771,VALID,349,VALID,0.646094,
2010-07-17, 03:10:04,VALID,1002.01,VALID,0,VALID,89.6012,VALID,0,VALID,26.0576,VALID,347,VALID,0.996484,
2010-07-17, 03:11:04,VALID,1001.99,VALID,0,VALID,89.3418,VALID,0,VALID,26.0381,VALID,14,VALID,0.542578,
2010-07-17, 03:12:04,VALID,1002,VALID,0,VALID,89.7843,VALID,0,VALID,25.9992,VALID,352,VALID,1.10117,
2010-07-17, 03:13:04,VALID,1002.02,VALID,0,VALID,90.1123,VALID,0,VALID,26.0206,VALID,356,VALID,1.26094,
2010-07-17, 03:14:04,VALID,1002,VALID,0,VALID,90.1581,VALID,0,VALID,26.0012,VALID,354,VALID,1.13125,
2010-07-17, 03:15:04,VALID,1002.01,VALID,0,VALID,90.3793,VALID,0,VALID,26.0012,VALID,350,VALID,0.828516,
2010-07-17, 03:16:04,VALID,1001.97,VALID,0,VALID,90.5319,VALID,0,VALID,25.9797,VALID,342,VALID,0.780078,
2010-07-17, 03:17:04,VALID,1001.97,VALID,0,VALID,90.8218,VALID,0,VALID,25.9602,VALID,344,VALID,1.08008,
2010-07-17, 03:18:04,VALID,1001.96,VALID,0,VALID,91.0202,VALID,0,VALID,25.9602,VALID,341,VALID,0.887891,
2010-07-17, 03:19:04,VALID,1001.98,VALID,0,VALID,91.0202,VALID,0,VALID,25.9817,VALID,1,VALID,0.89375,
2010-07-17, 03:20:04,VALID,1001.98,VALID,0,VALID,91.2643,VALID,0,VALID,25.9408,VALID,354,VALID,0.807422,
2010-07-17, 03:21:04,VALID,1001.97,VALID,0,VALID,92.5765,VALID,0,VALID,25.9232,VALID,355,VALID,1.175,
2010-07-17, 03:22:04,VALID,1002,VALID,0,VALID,93.4843,VALID,0,VALID,25.9232,VALID,7,VALID,0.830469,
2010-07-17, 03:23:04,VALID,1002.01,VALID,0,VALID,93.2631,VALID,0,VALID,25.9018,VALID,17,VALID,0.757813,
2010-07-17, 03:24:04,VALID,1002.01,VALID,0,VALID,93.6369,VALID,0,VALID,25.8823,VALID,17,VALID,0.500391,
2010-07-17, 03:25:04,VALID,1002.01,VALID,0,VALID,94.4837,VALID,0,VALID,25.8843,VALID,17,VALID,0.317969,
2010-07-17, 03:26:04,VALID,1001.99,VALID,0,VALID,95.9103,VALID,0,VALID,25.8239,VALID,5,VALID,0.807031,
2010-07-17, 03:27:04,VALID,1001.99,VALID,0,VALID,97.1462,VALID,0,VALID,25.8064,VALID,5,VALID,0.635938,
2010-07-17, 03:28:04,VALID,1001.97,VALID,0,VALID,99.4882,VALID,0,VALID,25.8064,VALID,5,VALID,0.632031,
2010-07-17, 03:29:04,VALID,1001.97,VALID,0,VALID,100.327,VALID,0.100563,VALID,25.7655,VALID,353,VALID,0.935156,
2010-07-17, 03:30:04,VALID,1001.95,VALID,0,VALID,101.685,VALID,0,VALID,25.746,VALID,342,VALID,0.845703,
2010-07-17, 03:31:04,VALID,1001.94,VALID,0,VALID,102.113,VALID,0,VALID,25.748,VALID,354,VALID,0.885156,
2010-07-17, 03:32:04,VALID,1001.95,VALID,0,VALID,103.356,VALID,0,VALID,25.748,VALID,348,VALID,0.664453,
2010-07-17, 03:33:04,VALID,1001.97,VALID,0,VALID,103.532,VALID,0,VALID,25.7265,VALID,358,VALID,0.833203,
2010-07-17, 03:34:04,VALID,1002.02,VALID,0,VALID,103.028,VALID,0,VALID,25.7674,VALID,6,VALID,0.441406,
2010-07-17, 03:35:04,VALID,1002.02,VALID,0,VALID,102.83,VALID,0,VALID,25.7285,VALID,3,VALID,0.647656,
2010-07-17, 03:36:04,VALID,1002.04,VALID,0,VALID,103.394,VALID,0,VALID,25.748,VALID,4,VALID,0.747266,
2010-07-17, 03:37:04,VALID,1002.11,VALID,0,VALID,104,VALID,0,VALID,25.7265,VALID,342,VALID,0.728906,
2010-07-17, 03:38:04,VALID,1002.1,VALID,0,VALID,103.821,VALID,0,VALID,25.7674,VALID,347,VALID,0.535547,
2010-07-17, 03:39:04,VALID,1002.14,VALID,0,VALID,103.425,VALID,0,VALID,25.7674,VALID,347,VALID,0.370703,
2010-07-17, 03:40:04,VALID,1002.14,VALID,0,VALID,103.425,VALID,0,VALID,25.748,VALID,347,VALID,0.428125,
2010-07-17, 03:41:04,VALID,1002.14,VALID,0,VALID,103.6,VALID,0.100563,VALID,25.6856,VALID,347,VALID,0,
2010-07-17, 03:42:04,VALID,1002.16,VALID,0,VALID,103.6,VALID,0,VALID,25.6486,VALID,347,VALID,0.217187,
2010-07-17, 03:43:04,VALID,1002.18,VALID,0,VALID,103.974,VALID,0,VALID,25.6116,VALID,347,VALID,0.0195313,
2010-07-17, 03:44:04,VALID,1002.17,VALID,0,VALID,104,VALID,0,VALID,25.5513,VALID,347,VALID,0,
2010-07-17, 03:45:04,VALID,1002.16,VALID,0,VALID,104,VALID,0,VALID,25.5142,VALID,347,VALID,0.466797,
2010-07-17, 03:46:04,VALID,1002.12,VALID,0,VALID,104,VALID,0,VALID,25.4928,VALID,359,VALID,0.680859,
2010-07-17, 03:47:04,VALID,1002.11,VALID,0,VALID,104,VALID,0,VALID,25.5123,VALID,16,VALID,1.04648,